Torna al catalogo

BREEZE-KM R/B

AttivoPO
NORAD 40923·ROCKET BODY·🇷🇺 Russia

Lanciato Sep 23, 2015 da Plesetsk Cosmodrome

Loading…

Prossimi Passaggi (prossime 24 ore)

TLE

AggiornatoSource: Space-Track

Epoca: Sep 14, 2026, 12:42 UTC

1 40923U 15050D   26257.52941760  .00000016  00000-0  26452-4 0  9995
2 40923  82.4907 201.6196 0201348 253.3878 104.5030 12.80444149513008

Traccia BREEZE-KM R/B in tempo reale con AllMySat

Download on the App Store